Home   Weather   Ingolstadt   Past weeks

Flag for Germany Past Weather in Ingolstadt, Bavaria, Germany — Yesterday and Last 2 Weeks

Now
23 °F

Cold.


Feels Like: 23 °F
Forecast: 32 / 40 °F
Wind: 2 mph from Southwest

Location: Ingolstadt Airport

Current Time: Dec 11, 2016 at 5:25:14 am

Latest Report: Dec 11, 2016 at 4:20 am


Visibility: 4 mi

Pressure: 30.15 "Hg

Humidity: 93%

Dew Point: 21 °F

Location of IngolstadtLocation

Past Weather in Ingolstadt — Graph

°F

Ingolstadt Temperature Yesterday

Maximum temperature yesterday: 46 °F (at 2:20 pm)
Minimum temperature yesterday: 27 °F (at 9:20 pm)
Average temperature yesterday: 34 °F

High & Low Weather Summary for the Past Weeks

 TemperatureHumidityPressure
High46 °F (Nov 27, 12:20 pm)100% (Nov 27, 5:20 am)30.60 "Hg (Nov 27, 5:20 am)
Low16 °F (Nov 30, 7:20 am)45% (Dec 1, 2:20 pm)30.01 "Hg (Nov 26, 2:20 pm)
Average31 °F86%30.33 "Hg
* Reported Nov 26 3:20 am — Dec 11 3:20 am, Ingolstadt, Weather by CustomWeather, © 2016

Note: Actual official high and low records may vary slightly from our data, if they occured in-between our weather recording intervals... More about our weather records

Advertising

Ingolstadt Weather History for the Previous 24 Hours

Scroll right to see more
 ConditionsComfort  
Time TempWeatherWind HumidityBarometerVisibility
3:20 am
Sun, Dec 11
23 °FCold.1 mph100%30.15 "Hg0 mi
2:20 am25 °FCold.1 mph93%30.15 "Hg0 mi
1:20 am25 °FCold.1 mph93%30.18 "Hg3 mi
12:20 am25 °FCold.3 mph93%30.18 "Hg4 mi
11:20 pm
Sat, Dec 10
27 °FChilly.1 mph93%30.21 "Hg3 mi
10:20 pm27 °FChilly.1 mph93%30.24 "Hg5 mi
9:20 pm27 °FChilly.1 mph93%30.24 "Hg4 mi
8:20 pm28 °FChilly.1 mph93%30.24 "Hg6 mi
7:20 pm28 °FChilly.2 mph93%30.27 "Hg6 mi
6:20 pm30 °FChilly.3 mph86%30.27 "HgN/A
5:20 pm32 °FPassing clouds.1 mph87%30.27 "HgN/A
4:20 pm39 °FPassing clouds.1 mph70%30.27 "HgN/A
3:20 pm45 °FPassing clouds.5 mph61%30.27 "HgN/A
2:20 pm46 °FPassing clouds.7 mph53%30.27 "HgN/A
1:20 pm45 °FPassing clouds.8 mph53%30.30 "HgN/A
12:20 pm43 °FScattered clouds.3 mph57%30.30 "HgN/A
11:20 am41 °FScattered clouds.2 mph66%30.33 "HgN/A
10:20 am36 °FChilly.2 mph81%30.36 "Hg6 mi
9:20 am32 °FChilly.No wind93%30.33 "Hg4 mi
8:20 am28 °FChilly.No wind93%30.33 "Hg2 mi
7:20 am28 °FChilly.2 mph93%30.33 "Hg1 mi
6:20 am28 °FChilly.2 mph100%30.33 "Hg1 mi
5:20 am28 °FChilly.1 mph100%30.36 "Hg0 mi
Weather by CustomWeather, © 2016

See weather overviewHow to use our weather pages